Regional Weather Roundup
Issued by NWS

Home | Current Version | Previous Version | Text Only | Print | Product List | Glossary Off
Versions: 1 2 3 4 5 6 7 8 9 10 11 12 13 14 15 16 17 18 19 20 21 22 23 24 25 26 27 28 29 30 31 32 33 34 35 36 37 38 39 40 41 42 43 44 45 46 47 48 49 50

000
ASUS43 KLOT 280203
RWRIL

ILLINOIS REGIONAL WEATHER ROUNDUP
NATIONAL WEATHER SERVICE CHICAGO/ROMEOVILLE IL
900 PM CDT TUE JUN 27 2017

NOTE: "FAIR" INDICATES FEW OR NO CLOUDS BELOW 12,000 FEET WITH NO
SIGNIFICANT WEATHER AND/OR OBSTRUCTIONS TO VISIBILITY.

* THESE STATIONS ARE NOT UNDER NWS QUALITY CONTROL. THEY ALSO MAY NOT
  REPORT WEATHER SUCH AS PRECIPITATION OR FOG.

ILZ001-002-007-009-015-016-024-280300-
NORTHWEST ILLINOIS

CITY           SKY/WX    TMP DP  RH WIND       PRES   REMARKS
MOLINE         PTCLDY    66  50  56 SE8       29.97F
STERLING*      PTCLDY    67  49  52 S3        30.00F
$$

ILZ003-004-008-010-011-017-018-280300-
NORTH CENTRAL ILLINOIS

CITY           SKY/WX    TMP DP  RH WIND       PRES   REMARKS
ROCKFORD       MOCLDY    66  48  52 S7        30.01S
$$

ILZ005-006-012>014-019>023-280300-
NORTHEAST ILLINOIS

CITY           SKY/WX    TMP DP  RH WIND       PRES   REMARKS
CHICAGO-OHARE  MOCLDY    70  44  39 S7        30.01S
CHICAGO-MIDWAY PTCLDY    72  45  37 S8        30.02S
AURORA         PTCLDY    67  47  48 S5        30.03S
WAUKEGAN       CLEAR     64  51  62 SE7       30.01S
DUPAGE AIRPORT CLEAR     63  49  60 S5        30.01F
WHEELING       CLEAR     67  50  54 SE5       30.02F
$$

LMZ740>746-280300-
SOUTHERN LAKE MICHIGAN

STATION/POSITION SKY/WX   TEMP    WIND        PRES    VSBY  WAVE
                          AIR SEA DIR/SP/G                  HT/PER
                          (F)     (DEG/KT/KT) (MB)    (MI)  (FT/S)
SOUTHERN BUOY              63 62  170/ 10/ 12 1016.7          1/ 3
WILMETTE HARBOR            65 64  160/  8/ 10   N/A           1/ 3
HARRISON CRIB              67     130/ 13/ 14   N/A
BURNHAM HARBOR             63                   N/A
CALUMET HARBOR             67     110/  5/  7 1016.2F
BURNS HARBOR               71     170/  3/  8 1017.3S
MICHIGAN CITY              69     130/  4/  6   N/A
MICHIGAN CITY 6N           68 66  150/  6/  8   N/A           1
ST. JOSEPH                 69 69  160/  6/  8 1017.1F         1
$$

ILZ025>027-034>036-040-047-049-050-058-095>099-280300-
WEST-CENTRAL ILLINOIS

CITY           SKY/WX    TMP DP  RH WIND       PRES   REMARKS
QUINCY         CLEAR     67  56  67 SE6       29.98F
$$

ILZ028>032-037-038-041>044-048-051>054-059>061-280300-
CENTRAL ILLINOIS

CITY           SKY/WX    TMP DP  RH WIND       PRES   REMARKS
BLOOMINGTON    CLEAR     65  50  58 S6        30.06R
DECATUR        CLEAR     66  48  52 SE8       30.05S
PEORIA         CLEAR     68  50  52 SE5       30.01F
SPRINGFIELD    CLEAR     69  53  56 S6        30.03S
TAYLORVILLE    NOT AVBL
$$

ILZ033-039-045-046-055>057-062-063-280300-
EAST-CENTRAL ILLINOIS

CITY           SKY/WX    TMP DP  RH WIND       PRES   REMARKS
CHAMPAIGN      CLEAR     63  49  60 S7        30.06S
MATTOON        CLEAR     64  56  75 S3        30.06S
$$

ILZ079-100>102-280300-
SOUTHWEST ILLINOIS

CITY           SKY/WX    TMP DP  RH WIND       PRES   REMARKS
ALTON          CLEAR     64  55  72 E6        30.02F
BELLEVILLE     CLOUDY    69  55  60 S6        30.04S
CAHOKIA*       CLEAR     73  51  46 SE6       30.02S
$$

ILZ064>066-069>071-074>076-080>082-084>086-088>090-092>094-280300-
SOUTH-CENTRAL ILLINOIS

CITY           SKY/WX    TMP DP  RH WIND       PRES   REMARKS
CARBONDALE     CLEAR     67  61  81 CALM      30.05S
MT. VERNON     PTCLDY    64  57  78 CALM      30.07R
$$

ILZ067-068-072-073-078-083-087-091-280300-
SOUTHEAST ILLINOIS

CITY           SKY/WX    TMP DP  RH WIND       PRES   REMARKS
LAWRENCEVILLE  CLEAR     67  56  67 E5        30.07S
$$

ABBREVIATIONS USED IN REMARKS
   TC - TEMPERATURE IN CELSIUS
  WCI - WIND CHILL INDEX
   HX - HEAT INDEX
  VSB - VISIBILITY
$$





USA.gov is the U.S. government's official web portal to all federal, state and local government web resources and services.